Sauk Centre, MN

2:06 AM CST on December 08, 2019 (GMT -0600)
Sauk Centre

Weather History for KD39 - September, 2019

Change the Weather History Date:

Wednesday, September 11, 2019

  Actual Average (WUND) Record (WUND)
Temperature  
Mean Temperature 57 °F -  
Max Temperature 65 °F - - (-1)
Min Temperature 49 °F - - (-1)
Degree Days  
Heating Degree Days 8    
Growing Degree Days 7 (Base 50)    
Moisture  
Dew Point 55 °F    
Average Humidity 90    
Maximum Humidity 97    
Minimum Humidity 78    
Precipitation  
Precipitation 0.15 in - - ()
Sea Level Pressure  
Sea Level Pressure 30.08 in    
Wind  
Wind Speed 9 mph ()    
Max Wind Speed 18 mph    
Max Gust Speed 24 mph    
Visibility 9.7 miles    
Events Rain , Thunderstorm    
Averages and records for this station are not official NWS values.
T = Trace of Precipitation, MM = Missing Value Source: Averaged Metar Reports

Daily Weather History Graph

Daily Weather History Graph

Search for Another Location

Airport or City:

Astronomy

Sep. 11, 2019 Rise Set
Actual Time 6:52 AM CDT 7:39 PM CDT
Civil Twilight 6:22 AM CDT 8:09 PM CDT
Nautical Twilight 5:46 AM CDT 8:44 PM CDT
Astronomical Twilight 5:09 AM CDT 9:21 PM CDT
Moon 7:01 PM CDT (9/11) 4:04 AM CDT (9/11)
Length of Visible Light 13h 46m
Length of Day
12h 46m
Waxing Gibbous, 95% of the Moon is Illuminated
Sep 11
Waxing Gibbous
Sep 13
Full
Sep 21
Last Quarter
Sep 28
New
Oct 5
First Quarter

Hourly Weather History & Observations

Time (CDT) Temp. Dew Point Humidity Pressure Visibility Wind Dir Wind Speed Gust Speed Precip Events Conditions
12:16 AM 58.3 °F 55.6 °F 91% 30.09 in 10.0 mi North 4.6 mph - N/A   Clear
12:35 AM 58.1 °F 55.6 °F 91% 30.09 in 10.0 mi NNE 4.6 mph - N/A   Clear
12:36 AM 58.3 °F 55.6 °F 91% 30.10 in 10.0 mi NNE 3.5 mph - N/A   Clear
12:55 AM 58.3 °F 55.6 °F 91% 30.11 in 10.0 mi North 3.5 mph - N/A   Clear
12:59 AM 58.1 °F 55.4 °F 91% 30.11 in 10.0 mi NNE 5.8 mph - N/A   Clear
1:17 AM 58.1 °F 55.4 °F 91% 30.11 in 10.0 mi North 5.8 mph - N/A Rain Light Rain
1:35 AM 57.6 °F 55.0 °F 91% 30.09 in 10.0 mi NNE 6.9 mph - N/A Rain Light Rain
1:36 AM 57.4 °F 55.0 °F 92% 30.08 in 10.0 mi NNE 8.1 mph - N/A Rain Light Rain
1:55 AM 57.4 °F 55.4 °F 93% 30.07 in 10.0 mi ENE 6.9 mph - N/A Rain Light Rain
1:59 AM 57.2 °F 55.4 °F 94% 30.06 in 10.0 mi NE 8.1 mph - 0.01 in Rain Light Rain
2:17 AM 57.2 °F 55.6 °F 94% 30.09 in 10.0 mi East 4.6 mph - N/A Rain , Thunderstorm Light Thunderstorms and Rain
2:36 AM 57.2 °F 55.9 °F 96% 30.06 in 10.0 mi ENE 4.6 mph - 0.01 in Rain Rain
2:55 AM 57.2 °F 55.8 °F 95% 30.05 in 10.0 mi NNE 8.1 mph - 0.02 in Rain Light Rain
3:18 AM 57.2 °F 55.8 °F 95% 30.06 in 10.0 mi East 5.8 mph - 0.01 in Rain Light Rain
3:37 AM 56.7 °F 55.6 °F 96% 30.05 in 10.0 mi East 11.5 mph - 0.02 in Rain Light Rain
3:56 AM 56.5 °F 55.4 °F 96% 30.03 in 10.0 mi East 13.8 mph - 0.04 in Rain Light Rain
4:15 AM 56.5 °F 55.6 °F 97% 30.01 in 10.0 mi East 17.3 mph 23.0 mph 0.03 in Rain Light Rain
4:16 AM 56.5 °F 55.6 °F 97% 30.00 in 10.0 mi East 17.3 mph 23.0 mph 0.03 in Rain Light Rain
4:36 AM 56.5 °F 55.6 °F 97% 29.98 in 10.0 mi East 18.4 mph 24.2 mph 0.05 in Rain Light Rain
4:55 AM 56.3 °F 55.4 °F 97% 30.01 in 10.0 mi NE 12.7 mph 18.4 mph 0.06 in Rain Light Rain
4:56 AM 56.3 °F 55.4 °F 97% 30.00 in 10.0 mi NE 13.8 mph 18.4 mph 0.06 in Rain Light Rain
5:15 AM 56.3 °F 55.2 °F 96% 30.00 in 10.0 mi NNE 13.8 mph 19.6 mph N/A Rain Light Rain
5:19 AM 56.3 °F 55.0 °F 96% 30.01 in 10.0 mi North 13.8 mph 17.3 mph 0.01 in Rain Light Rain
5:55 AM 56.5 °F 55.4 °F 96% 30.04 in 10.0 mi NNE 15.0 mph 20.7 mph 0.02 in Rain Light Rain
6:15 AM 56.5 °F 55.0 °F 95% 30.04 in 10.0 mi NNE 13.8 mph 19.6 mph N/A   Overcast
6:16 AM 56.5 °F 55.0 °F 95% 30.04 in 10.0 mi NNE 15.0 mph 19.6 mph N/A   Overcast
6:35 AM 56.3 °F 54.9 °F 95% 30.04 in 10.0 mi NE 11.5 mph - N/A   Scattered Clouds
6:39 AM 56.3 °F 54.9 °F 95% 30.04 in 10.0 mi ENE 11.5 mph 16.1 mph N/A   Scattered Clouds
6:58 AM 56.3 °F 54.7 °F 94% 30.05 in 10.0 mi ENE 9.2 mph - N/A   Scattered Clouds
7:15 AM 56.3 °F 54.7 °F 94% 30.04 in 10.0 mi NE 9.2 mph - N/A   Scattered Clouds
7:36 AM 56.5 °F 54.9 °F 94% 30.07 in 10.0 mi NE 6.9 mph - N/A   Mostly Cloudy
7:55 AM 56.7 °F 54.9 °F 94% 30.05 in 10.0 mi ENE 10.4 mph - N/A   Overcast
8:15 AM 57.2 °F 55.0 °F 92% 30.06 in 10.0 mi East 10.4 mph - N/A   Overcast
8:19 AM 57.2 °F 55.0 °F 92% 30.05 in 10.0 mi East 10.4 mph - N/A   Overcast
8:38 AM 57.4 °F 55.4 °F 93% 30.07 in 10.0 mi ENE 8.1 mph - N/A   Mostly Cloudy
8:55 AM 57.7 °F 55.6 °F 92% 30.07 in 10.0 mi ENE 6.9 mph - N/A   Mostly Cloudy
9:16 AM 58.1 °F 55.6 °F 91% 30.07 in 10.0 mi ENE 8.1 mph - N/A   Overcast
9:35 AM 58.3 °F 55.9 °F 92% 30.06 in 10.0 mi ENE 6.9 mph - N/A   Overcast
9:36 AM 58.3 °F 55.9 °F 92% 30.06 in 10.0 mi ENE 6.9 mph - N/A   Overcast
9:55 AM 59.2 °F 56.5 °F 91% 30.07 in 10.0 mi NE 9.2 mph - N/A   Overcast
9:59 AM 59.4 °F 56.5 °F 90% 30.07 in 10.0 mi NE 8.1 mph - N/A   Overcast
10:17 AM 60.3 °F 56.5 °F 87% 30.06 in 10.0 mi NNE 8.1 mph - N/A   Overcast
10:36 AM 61.2 °F 56.7 °F 85% 30.07 in 10.0 mi NE 8.1 mph - N/A   Overcast
10:55 AM 62.1 °F 57.4 °F 85% 30.07 in 10.0 mi NE 8.1 mph - N/A   Overcast
10:56 AM 62.1 °F 57.4 °F 85% 30.07 in 10.0 mi NE 9.2 mph - N/A   Overcast
11:16 AM 61.9 °F 57.0 °F 84% 30.08 in 10.0 mi ENE 10.4 mph - N/A   Overcast
11:35 AM 62.4 °F 57.2 °F 83% 30.08 in 10.0 mi ENE 12.7 mph - N/A   Overcast
11:40 AM 63.1 °F 57.0 °F 80% 30.07 in 10.0 mi ENE 11.5 mph - N/A   Overcast
11:57 AM 62.8 °F 57.4 °F 82% 30.08 in 10.0 mi ENE 10.4 mph - N/A   Overcast
12:15 PM 64.4 °F 58.1 °F 80% 30.07 in 10.0 mi ENE 10.4 mph 17.3 mph N/A   Scattered Clouds
12:35 PM 65.7 °F 58.5 °F 78% 30.08 in 10.0 mi ENE 10.4 mph - N/A   Mostly Cloudy
1:19 PM 64.2 °F 57.9 °F 80% 30.09 in 10.0 mi NNE 6.9 mph - N/A   Overcast
1:36 PM 62.8 °F 57.7 °F 84% 30.09 in 10.0 mi NNE 10.4 mph - N/A   Overcast
1:56 PM 62.6 °F 58.1 °F 85% 30.09 in 10.0 mi NNE 10.4 mph - N/A   Overcast
2:15 PM 61.9 °F 57.4 °F 85% 30.10 in 10.0 mi NNE 10.4 mph - N/A   Overcast
2:16 PM 61.9 °F 57.4 °F 85% 30.10 in 10.0 mi NNE 9.2 mph - N/A   Overcast
2:35 PM 61.9 °F 57.4 °F 85% 30.10 in 10.0 mi NE 12.7 mph - N/A   Overcast
2:38 PM 61.7 °F 57.2 °F 85% 30.11 in 10.0 mi NNE 11.5 mph - N/A   Overcast
2:57 PM 61.5 °F 57.0 °F 85% 30.11 in 10.0 mi NNE 12.7 mph 16.1 mph N/A   Overcast
3:15 PM 61.0 °F 56.5 °F 85% 30.10 in 10.0 mi NNE 11.5 mph 20.7 mph N/A   Overcast
3:36 PM 60.4 °F 56.1 °F 86% 30.11 in 10.0 mi NE 11.5 mph 18.4 mph N/A   Overcast
3:55 PM 59.7 °F 55.8 °F 87% 30.11 in 10.0 mi NNE 11.5 mph 17.3 mph N/A   Overcast
3:56 PM 59.7 °F 55.6 °F 86% 30.12 in 10.0 mi NE 11.5 mph 17.3 mph N/A   Overcast
4:19 PM 59.0 °F 55.4 °F 88% 30.12 in 10.0 mi NE 11.5 mph - N/A   Overcast
4:36 PM 59.2 °F 55.4 °F 87% 30.11 in 10.0 mi ENE 11.5 mph - N/A   Overcast
4:55 PM 58.8 °F 54.9 °F 87% 30.11 in 10.0 mi NE 15.0 mph - N/A   Overcast
4:56 PM 58.6 °F 54.9 °F 87% 30.11 in 10.0 mi ENE 16.1 mph - N/A   Overcast
5:15 PM 58.6 °F 54.3 °F 86% 30.12 in 10.0 mi ENE 12.7 mph - N/A   Overcast
5:16 PM 58.6 °F 54.3 °F 86% 30.12 in 10.0 mi ENE 12.7 mph - N/A   Overcast
5:35 PM 58.5 °F 54.1 °F 86% 30.13 in 10.0 mi NE 11.5 mph - N/A   Overcast
5:57 PM 58.1 °F 53.8 °F 86% 30.12 in 10.0 mi ENE 11.5 mph 16.1 mph N/A   Overcast
6:15 PM 58.1 °F 54.0 °F 86% 30.11 in 10.0 mi ENE 12.7 mph 17.3 mph N/A   Overcast
6:35 PM 57.6 °F 53.6 °F 87% 30.11 in 10.0 mi NE 10.4 mph 18.4 mph N/A   Overcast
6:36 PM 57.6 °F 53.8 °F 87% 30.11 in 10.0 mi NE 9.2 mph 18.4 mph N/A   Overcast
6:55 PM 56.8 °F 53.6 °F 89% 30.11 in 10.0 mi NE 13.8 mph 18.4 mph N/A   Overcast
6:56 PM 56.8 °F 53.6 °F 89% 30.11 in 10.0 mi NE 12.7 mph - N/A   Overcast
7:19 PM 56.5 °F 53.1 °F 88% 30.11 in 10.0 mi ENE 15.0 mph 21.9 mph N/A   Overcast
7:36 PM 56.5 °F 52.7 °F 87% 30.12 in 10.0 mi ENE 15.0 mph 21.9 mph N/A   Overcast
7:55 PM 56.3 °F 52.3 °F 87% 30.13 in 10.0 mi ENE 11.5 mph - N/A   Overcast
7:56 PM 56.3 °F 52.3 °F 87% 30.13 in 10.0 mi ENE 13.8 mph 18.4 mph N/A   Overcast
8:15 PM 55.9 °F 52.2 °F 87% 30.11 in 10.0 mi ENE 15.0 mph 19.6 mph N/A   Overcast
8:19 PM 55.8 °F 52.0 °F 87% 30.11 in 10.0 mi ENE 12.7 mph 19.6 mph N/A   Overcast
8:38 PM 55.6 °F 51.4 °F 86% 30.12 in 10.0 mi ENE 15.0 mph 20.7 mph N/A   Overcast
8:56 PM 55.4 °F 51.1 °F 85% 30.12 in 10.0 mi ENE 12.7 mph 19.6 mph N/A   Overcast
9:35 PM 54.7 °F 51.1 °F 88% 30.12 in 10.0 mi ENE 11.5 mph - N/A   Overcast
9:36 PM 54.7 °F 51.1 °F 88% 30.12 in 10.0 mi ENE 12.7 mph - N/A   Overcast
9:55 PM 53.8 °F 50.4 °F 88% 30.13 in 10.0 mi ENE 13.8 mph 21.9 mph N/A   Overcast
10:16 PM 52.7 °F 49.6 °F 89% 30.11 in 10.0 mi ENE 16.1 mph 20.7 mph N/A   Overcast
10:36 PM 52.3 °F 49.6 °F 91% 30.13 in 10.0 mi ENE 10.4 mph 13.8 mph N/A   Overcast
10:55 PM 51.3 °F 49.3 °F 93% 30.13 in 7.0 mi ENE 11.5 mph 18.4 mph N/A   Overcast
11:18 PM 50.0 °F 49.1 °F 97% 30.11 in 3.0 mi ENE 13.8 mph 20.7 mph N/A   Overcast
11:36 PM 49.6 °F 48.7 °F 97% 30.10 in 2.0 mi ENE 13.8 mph 24.2 mph N/A Rain Light Rain
11:55 PM 49.5 °F 48.7 °F 97% 30.09 in 3.0 mi ENE 17.3 mph 21.9 mph N/A   Overcast